[[{"header":{"parameterUnit":"m.s-1","parameterCategory":1,"la1":30.2991,"la2":30.254,"lo1":-89.0895,"lo2":-89.0444,"dy":0.0017,"dx":0.0017,"nx":28,"ny":28,"refTime":"2023-08-26T21:00:00:Z","depth":0,"parameterNumber":2,"parameterNumberName":"U-component_of_WINDS"},"data":[0,0,0,0,0,0,0,0,0,0,0,0,0,0,0,0,0,0,0,0,0,0,0,0,0,0,0,0,0,0,0,0,0,0,0,0,0,0,0,0,0,0,0,0,0,0,0,0,0,0,0,0,0,0,0,0,0,0,0.2667,0.2667,0,0.263,0.263,0.2629,0.2697,0.27,0.2702,0.2704,0.2663,0.266,0.2656,0,0,0,0,0,0,0,0,0,0,0,0,0,0.2794,0.2791,0.2667,0.2667,0.2666,0.263,0.263,0.2629,0.2697,0.27,0.2703,0.2705,0.2664,0.266,0.2656,0,0,0,0,0,0,0,0,0,0,0,0,0,0.2746,0.279,0.2667,0.2696,0.2698,0.263,0.263,0.2629,0.2696,0.27,0.2703,0.2706,0.2665,0.266,0.2656,0.2557,0,0,0.2641,0.2639,0,0,0,0,0,0,0,0,0.2748,0.2741,0.2692,0.2694,0.2696,0.2672,0.2659,0.2605,0.2696,0.2697,0.2704,0.2708,0.2663,0.2658,0.2644,0.2555,0.2554,0.264,0.2637,0.2635,0.2634,0,0,0,0,0,0,0,0.2752,0.2743,0.2652,0.2691,0.2694,0.271,0.2707,0.2649,0.2661,0.2697,0.2702,0.2697,0.2664,0.2648,0.2643,0.2553,0.264,0.2636,0.2633,0.2631,0.2383,0.2379,0,0,0,0,0,0,0.2752,0.2745,0.2654,0.2651,0.2731,0.2704,0.2701,0.2676,0.2662,0.2663,0.2694,0.27,0.2655,0.2649,0.2642,0.2526,0.2635,0.2631,0.2628,0.2387,0.2382,0.2378,0,0,0,0,0,0,0.2754,0.2743,0.2655,0.27,0.269,0.2699,0.267,0.2674,0.2658,0.266,0.2662,0.2675,0.2657,0.2649,0.2578,0.2526,0.2629,0.2624,0.2391,0.2385,0.238,0.2294,0,0,0,0,0,0,0.2758,0.2743,0.2707,0.2698,0.2687,0.2592,0.2667,0.267,0.2649,0.2657,0.2643,0.2643,0.2659,0.2585,0.2573,0.2521,0.262,0.2396,0.2388,0.2382,0.2301,0.2286,0.2273,0,0,0,0,0,0.2762,0.2683,0.2704,0.2693,0.2641,0.2589,0.2583,0.2603,0.2645,0.2608,0.2609,0.2644,0.2534,0.2577,0.2565,0.251,0.2399,0.239,0.2382,0.2308,0.2289,0.2273,0,0,0,0,0,0,0.2683,0.2682,0.2706,0.2622,0.2605,0.2601,0.2554,0.2583,0.2553,0.2561,0.2588,0.2584,0.2507,0.2502,0.2551,0.2415,0.2473,0.2462,0.2421,0.2403,0.2389,0.2391,0.2616,0,0,0,0,0,0.2656,0.2615,0.2616,0.2542,0.2532,0.2545,0.2523,0.2541,0.2524,0.2516,0.2513,0.2494,0.2456,0.2429,0.2394,0.2302,0.2299,0.2258,0.2244,0.2232,0.2221,0.2172,0.2154,0.2351,0.2351,0.2351,0,0,0.2599,0.2594,0.2566,0.2526,0.2515,0.2471,0.2538,0.2488,0.2455,0.2508,0.2442,0.2438,0.2419,0.2338,0.2301,0.2331,0.2167,0.2221,0.2212,0.2208,0.2162,0.2143,0.2127,0.2345,0.2346,0.2347,0,0,0.2474,0.2466,0.2403,0.2392,0.2375,0.2384,0.2369,0.236,0.236,0.2294,0.2334,0.2295,0.2227,0.2212,0.2196,0.2066,0.2097,0.2054,0.1979,0.1931,0.1915,0.1902,0.1855,0.1838,0.2044,0.2044,0.2044,0,0.2405,0.2341,0.2367,0.2315,0.2296,0.2344,0.2281,0.2268,0.2239,0.2225,0.2259,0.2176,0.2167,0.2082,0.2051,0.2036,0.2019,0.2055,0.1916,0.1902,0.189,0.1846,0.1828,0.2039,0.2039,0.204,0.204,0,0.2257,0.2212,0.2164,0.2137,0.2113,0.2055,0.2072,0.2044,0.2065,0.207,0.2002,0.1993,0.1957,0.1938,0.1957,0.1856,0.1875,0.1912,0.1971,0.1866,0.1824,0.1808,0.2031,0.2033,0.2035,0.2036,0,0,0.2079,0.2069,0.2051,0.204,0.2025,0.1991,0.1935,0.1901,0.1877,0.1856,0.181,0.1753,0.1787,0.1768,0.1786,0.1744,0.1642,0.1786,0.1786,0.1759,0.153,0.1501,0.1481,0.1663,0.166,0.1657,0.1531,0,0.1954,0.186,0.1882,0.1789,0.1747,0.1793,0.1745,0.1731,0.1734,0.1699,0.1703,0.1662,0.1711,0.17,0.1661,0.1662,0.1596,0.1672,0.1619,0.1616,0.1621,0.146,0.1429,0.1311,0.1515,0.1513,0.1511,0,0.1795,0.177,0.1672,0.1666,0.165,0.1606,0.1577,0.1543,0.1528,0.1534,0.1513,0.154,0.1484,0.1545,0.1469,0.1521,0.15,0.1498,0.1494,0.1489,0.1556,0.1449,0.1274,0.1255,0.1486,0.1488,0.1489,0,0.1674,0.1616,0.155,0.1539,0.153,0.1498,0.1493,0.1481,0.146,0.1434,0.142,0.1388,0.137,0.1345,0.1361,0.1404,0.1282,0.1344,0.1284,0.1284,0.1255,0.1256,0.1073,0.1244,0.1244,0.1244,0.1245,0,0.1531,0.1469,0.1496,0.1455,0.1388,0.1415,0.1346,0.1346,0.1336,0.1295,0.1333,0.1294,0.132,0.1282,0.1295,0.123,0.1222,0.1224,0.1228,0.122,0.1219,0.1206,0.1214,0.124,0.1241,0.1242,0.1242,0,0.1383,0.1399,0.133,0.1328,0.1326,0.1276,0.1274,0.1236,0.1244,0.1192,0.1182,0.1193,0.1151,0.1166,0.1121,0.113,0.1046,0.1062,0.1052,0.1055,0.0994,0.0999,0.0794,0.0768,0.0957,0.0955,0.0954,0,0.129,0.1244,0.1238,0.1215,0.1207,0.1168,0.1147,0.1172,0.1148,0.1128,0.1092,0.1055,0.1025,0.0957,0.096,0.0926,0.094,0.0871,0.0935,0.0929,0.0938,0.094,0.0935,0.0857,0.0855,0.0853,0.0852,0,0.1124,0.1134,0.1103,0.1074,0.1048,0.1026,0.1007,0.0986,0.101,0.0981,0.094,0.0917,0.0873,0.0834,0.0804,0.0798,0.0828,0.0832,0.0816,0.0807,0.0802,0.0803,0.1015,0.0836,0.0838,0.0839,0.084,0.084,0.1,0.0962,0.0952,0.0915,0.0905,0.0886,0.0851,0.0855,0.0821,0.0788,0.0805,0.0757,0.0743,0.0706,0.0696,0.0658,0.0685,0.0662,0.0656,0.065,0.0641,0.081,0.0653,0.0653,0.0654,0.0654,0.0655,0,0.0835,0.0831,0.0798,0.0772,0.0743,0.0777,0.0758,0.0731,0.0689,0.0675,0.0646,0.0599,0.0562,0.0564,0.053,0.0499,0.0512,0.0489,0.0491,0.0489,0.062,0.0636,0.0479,0.0479,0.0479,0.0479,0.0479,0.0479,0.0746,0.0682,0.0691,0.0623,0.062,0.0574,0.056,0.0544,0.0533,0.0479,0.0449,0.0451,0.0443,0.0409,0.0376,0.0378,0.0363,0.0334,0.034,0.0462,0.048,0.0496,0.0512,0.0331,0.0331,0.0213,0.0212,0.0211]},{"header":{"parameterUnit":"m.s-1","parameterCategory":1,"la1":30.2991,"la2":30.254,"lo1":-89.0895,"lo2":-89.0444,"dy":0.0017,"dx":0.0017,"nx":28,"ny":28,"refTime":"2023-08-26T21:00:00:Z","depth":0,"parameterNumber":3,"parameterNumberName":"V-component_of_WINDS"},"data":[0,0,0,0,0,0,0,0,0,0,0,0,0,0,0,0,0,0,0,0,0,0,0,0,0,0,0,0,0,0,0,0,0,0,0,0,0,0,0,0,0,0,0,0,0,0,0,0,0,0,0,0,0,0,0,0,0,0,1.708,1.7081,0,1.7162,1.7163,1.7164,1.7203,1.7203,1.7203,1.7203,1.7286,1.7288,1.729,0,0,0,0,0,0,0,0,0,0,0,0,0,1.6954,1.6956,1.708,1.7081,1.7082,1.7162,1.7163,1.7164,1.7203,1.7203,1.7203,1.7203,1.7285,1.7288,1.7291,0,0,0,0,0,0,0,0,0,0,0,0,0,1.7019,1.6957,1.708,1.7111,1.7115,1.7162,1.7163,1.7164,1.7203,1.7203,1.7203,1.7203,1.7284,1.7288,1.7291,1.7312,0,0,1.7301,1.7303,0,0,0,0,0,0,0,0,1.7016,1.7024,1.7106,1.7109,1.7113,1.7172,1.7149,1.7214,1.7203,1.717,1.7203,1.7203,1.7248,1.7255,1.727,1.7316,1.732,1.7301,1.7304,1.7305,1.7306,0,0,0,0,0,0,0,1.7011,1.7021,1.7112,1.7107,1.7111,1.712,1.7129,1.7161,1.7208,1.7173,1.7176,1.7185,1.725,1.7267,1.7272,1.7321,1.7301,1.7304,1.7306,1.7308,1.7384,1.7384,0,0,0,0,0,0,1.7002,1.7017,1.711,1.7115,1.7063,1.7122,1.7133,1.7153,1.7208,1.7216,1.7185,1.7186,1.7261,1.7268,1.7275,1.7301,1.7305,1.7308,1.731,1.7384,1.7384,1.7384,0,0,0,0,0,0,1.6999,1.701,1.7106,1.7067,1.708,1.7125,1.7147,1.7155,1.7172,1.7217,1.7225,1.7193,1.7261,1.7271,1.7302,1.7305,1.731,1.7313,1.7384,1.7384,1.7384,1.7355,0,0,0,0,0,0,1.6995,1.7008,1.7018,1.7067,1.7082,1.7133,1.7148,1.7157,1.7177,1.718,1.7227,1.7235,1.7262,1.7297,1.7305,1.7309,1.7315,1.7384,1.7384,1.7384,1.7356,1.7354,1.7352,0,0,0,0,0,1.6991,1.7007,1.7019,1.703,1.7095,1.7133,1.7142,1.7173,1.7177,1.7187,1.7215,1.7233,1.7303,1.73,1.731,1.7315,1.7384,1.7384,1.7384,1.7357,1.7354,1.7352,0,0,0,0,0,0,1.6959,1.7014,1.7027,1.7061,1.7092,1.714,1.7153,1.717,1.72,1.7202,1.7238,1.7248,1.7276,1.7299,1.7294,1.7336,1.7345,1.7347,1.7321,1.7319,1.7317,1.7311,1.7318,0,0,0,0,0,1.6955,1.6983,1.703,1.7054,1.7069,1.7108,1.7126,1.7146,1.718,1.7194,1.7225,1.7256,1.7285,1.7303,1.7332,1.7359,1.7368,1.7367,1.7365,1.7364,1.7365,1.7378,1.7377,1.7385,1.7385,1.7385,0,0,1.6949,1.6983,1.6998,1.7048,1.7075,1.7101,1.7119,1.7146,1.7165,1.7198,1.7229,1.7252,1.7289,1.7318,1.7332,1.7338,1.7365,1.7364,1.7362,1.7364,1.7378,1.7377,1.7376,1.7385,1.7385,1.7385,0,0,1.6951,1.698,1.7002,1.7028,1.7067,1.7093,1.7097,1.7142,1.7159,1.7191,1.7214,1.7237,1.7286,1.7311,1.733,1.7336,1.7353,1.7344,1.7335,1.7347,1.7347,1.7346,1.7347,1.7347,1.7346,1.7346,1.7346,0,1.6938,1.6979,1.7012,1.7037,1.7057,1.7086,1.7108,1.7131,1.7178,1.719,1.7196,1.7256,1.7283,1.7316,1.7317,1.7332,1.7338,1.734,1.7344,1.7344,1.7344,1.7345,1.7345,1.7344,1.7344,1.7344,1.7345,0,1.696,1.6988,1.7001,1.7044,1.7066,1.7089,1.7123,1.7141,1.7159,1.7182,1.7212,1.7245,1.728,1.729,1.7308,1.7324,1.7326,1.7337,1.7347,1.7342,1.7343,1.7343,1.7342,1.7343,1.7343,1.7343,0,0,1.6947,1.7005,1.701,1.7028,1.7072,1.7093,1.7116,1.715,1.7163,1.7194,1.7212,1.7252,1.7261,1.7283,1.7304,1.7314,1.7314,1.7324,1.7325,1.7319,1.7331,1.7321,1.7321,1.7325,1.7325,1.7325,1.7327,0,1.6954,1.6997,1.7025,1.7057,1.7081,1.7107,1.7127,1.7155,1.7176,1.7199,1.7223,1.7249,1.7262,1.7274,1.7286,1.7311,1.7316,1.7312,1.7341,1.7342,1.7331,1.7322,1.7313,1.7313,1.7328,1.7328,1.7328,0,1.6969,1.6997,1.7031,1.7069,1.708,1.7097,1.7128,1.715,1.7181,1.7196,1.7218,1.7238,1.7261,1.7268,1.7299,1.7295,1.7309,1.7323,1.7324,1.7327,1.7335,1.7324,1.7314,1.7313,1.7329,1.7329,1.7329,0,1.6953,1.7,1.7025,1.704,1.7086,1.7097,1.7116,1.7147,1.7164,1.7191,1.7202,1.7231,1.7247,1.7268,1.7295,1.7298,1.7322,1.7332,1.7334,1.7333,1.7338,1.7338,1.7329,1.7348,1.7348,1.7348,1.7348,0,1.6958,1.6977,1.7018,1.7034,1.7055,1.7085,1.7105,1.7126,1.7153,1.7172,1.7196,1.7213,1.7248,1.7268,1.7289,1.731,1.7318,1.7329,1.7334,1.7327,1.7325,1.7336,1.7336,1.7348,1.7348,1.7348,1.7348,0,1.6945,1.6973,1.7002,1.7042,1.7052,1.7065,1.7099,1.7114,1.7135,1.7158,1.7166,1.72,1.7225,1.7253,1.7288,1.7302,1.7321,1.733,1.7311,1.7313,1.7313,1.7312,1.731,1.7311,1.733,1.733,1.733,0,1.6946,1.6961,1.7001,1.7015,1.7033,1.7056,1.7073,1.7102,1.7118,1.7152,1.7163,1.7189,1.7212,1.725,1.7278,1.7304,1.7312,1.7309,1.7316,1.7307,1.731,1.7308,1.7309,1.7308,1.7307,1.7307,1.7307,0,1.6943,1.6956,1.698,1.7007,1.7026,1.705,1.7074,1.7084,1.7117,1.7134,1.7159,1.7177,1.7211,1.7236,1.7265,1.7283,1.73,1.7304,1.7306,1.7298,1.7285,1.729,1.7304,1.7304,1.7305,1.7305,1.7305,1.7305,1.6936,1.695,1.6979,1.7004,1.7024,1.7045,1.706,1.7083,1.7105,1.7134,1.715,1.7174,1.7201,1.7241,1.7259,1.7277,1.7283,1.7286,1.7286,1.7286,1.7283,1.7282,1.7283,1.7283,1.7283,1.7283,1.7283,0,1.6934,1.6953,1.6975,1.7007,1.7026,1.7039,1.7065,1.708,1.7101,1.7125,1.7146,1.7173,1.7197,1.7225,1.725,1.7259,1.7267,1.7264,1.7264,1.7267,1.7277,1.7273,1.7257,1.7257,1.7257,1.7257,1.7257,1.7257,1.6935,1.6957,1.6972,1.7004,1.7023,1.7047,1.706,1.7079,1.7098,1.7127,1.7146,1.7164,1.7189,1.7215,1.7236,1.7244,1.7251,1.7246,1.7255,1.7265,1.7267,1.7269,1.7265,1.7248,1.7248,1.7244,1.7244,1.7244]}]]